Regional Weather Roundup
Issued by NWS

Home | Current Version | Previous Version | Graphics & Text | Print | Product List | Glossary On
Versions: 1 2 3 4 5 6 7 8 9 10 11 12 13 14 15 16 17 18 19 20 21 22 23 24 25 26 27 28 29 30 31 32 33 34 35 36 37 38 39 40 41 42 43 44 45 46 47 48 49 50
000
ASUS45 KSLC 180310
RWRUT

UTAH REGIONAL WEATHER ROUNDUP
NATIONAL WEATHER SERVICE SALT LAKE CITY UT
800 PM MST FRI NOV 17 2017

UTZ001>011-023>025-180400-

NORTHERN UTAH

CITY           SKY/WX    TMP DP  RH WIND       PRES   REMARKS
BRIGHAM CITY   MOCLDY    35  21  55 NW7       30.22R WCI  30
HILL AFB       CLEAR     33  19  55 NW13      30.19R WCI  24
LOGAN          PTCLDY    36  20  52 N15G25    30.17R WCI  27
OGDEN          PTCLDY    34  21  59 NW12      30.19R WCI  25
SALT LAKE CITY MOCLDY    39  28  64 NW13      30.21R WCI  31
TOOELE VALLEY  CLEAR     32  27  80 NW8       30.23R WCI  25
WENDOVER       CLEAR     36  18  48 VRB3G22   30.28R
HEBER CITY     FLURRIES  32  23  69 SW3       30.14R
WEST JORDAN    PTCLDY    34  25  67 NW14      30.22R WCI  25

$$

UTZ011>015-024>027-180400-

CENTRAL/NORTHEAST UTAH

CITY           SKY/WX    TMP DP  RH WIND       PRES   REMARKS
PROVO AIRPORT  MOCLDY    36  22  56 NW20G31   30.22R WCI  25
MOAB/CANYONLAN CLOUDY    44  16  32 NW30G39   30.01R
DELTA          CLEAR     30  25  80 NW6       30.24R WCI  24
PRICE          PTCLDY    32  19  58 W10       30.08R WCI  24
RICHFIELD      CLOUDY    32  32 100 CALM      30.26R
ROOSEVELT      CLEAR     34  19  55 W14       30.08R WCI  24
VERNAL         CLOUDY    38   2  22 NW14G21   30.03R WCI  30

$$

UTZ013>016-019>022-027-180400-

SOUTHERN UTAH

CITY           SKY/WX    TMP DP  RH WIND       PRES   REMARKS
BRYCE CANYON   MOCLDY    28  25  88 NW18      30.14R WCI  15
CEDAR CITY     PTCLDY    34  29  82 N8        30.19R WCI  27
MILFORD        PTCLDY    35  30  82 N16       30.21R WCI  25
ST GEORGE      MOCLDY    55  32  41 E9        30.09R
HANKSVILLE     CLOUDY    43  21  42 W17G24    30.13R
KANAB          PTCLDY    43  37  81 N12       30.12R
BLANDING         N/A     41  31  66 NW23G38   30.01R

$$

REGIONAL REPORTS     COLORADO/ARIZONA

CITY           SKY/WX    TMP DP  RH WIND       PRES   REMARKS
CRAIG, CO      CLOUDY    30  25  81 SW6       30.00R WCI  24
GRAND JUNCTION LGT RAIN  40  31  70 NW15G25   30.04R WCI  32
RIFLE, CO      LGT SNOW  33  32  96 W7        30.04R VSB 3/4 WCI  27
MONTROSE, CO   RAIN      37  34  89 NW32G47   29.98R FOG     WCI  24
CORTEZ, CO     CLOUDY    54  36  50 SW18G28   29.89R
COLORADO CITY    N/A     45  37  76 NW12      30.11R
PAGE, AZ       CLOUDY    49  39  68 NW9G23    30.06R
GRAND CANYON   PTCLDY    43  34  70 SW9       30.12R
KINGMAN, AZ    PTCLDY    60  38  43 SW8       30.03S
FLAGSTAFF, AZ  MOCLDY    41  34  76 W6        30.15R

$$

REGIONAL REPORTS    NEVADA/IDAHO/WYOMING

CITY           SKY/WX    TMP DP  RH WIND       PRES   REMARKS
LAS VEGAS, NV  PTCLDY    69  26  20 NW24G33   29.99R
ELY, NY          N/A     23  19  85 W7        30.25R WCI  15
ELKO, NV       PTCLDY    28  22  78 NW6       30.27R WCI  22
POCATELLO, ID  CLEAR     32  24  72 SW12      30.17R WCI  23
BURLEY, ID     CLEAR     33  24  69 W14       30.20R WCI  23
FORT BRIDGER,    N/A     22  19  86 W20G28    30.09R WCI   7
EVANSTON, WY   PTCLDY    22  15  75 W15       30.10R WCI   9
ROCK SPRINGS,  PTCLDY    24  17  74 W26G37    30.00R WCI   8

$$



USA.gov is the U.S. government's official web portal to all federal, state and local government web resources and services.